CBERS-4

Last updated on Thu Jun 22 2017 00:17:34 GMT+0000 (Coordinated Universal Time)

1 40336U 14079A 17172.46143369 -.00000008 00000-0 12269-4 0 9994 2 40336 98.4528 247.0607 0001657 79.8667 280.2705 14.35467523133025

Satellite not in orbit

CBERS-4